Torna al catalogo

SL-14 R/B

AttivoPO
NORAD 16194·ROCKET BODY·🇷🇺 Russia

Lanciato Oct 24, 1985 da Plesetsk Cosmodrome

Loading…

Prossimi Passaggi (prossime 24 ore)

TLE

AggiornatoSource: Space-Track

Epoca: Sep 14, 2026, 13:57 UTC

1 16194U 85100B   26257.58175200  .00000023  00000-0  34209-4 0  9992
2 16194  82.6026 200.1689 0015660 299.9160 234.1004 13.06838600949851

Traccia SL-14 R/B in tempo reale con AllMySat

Download on the App Store